Weather History for Westminster, MD

Change the Weather History Date:

Tuesday, January 14, 2014

  Actual Average (KTHV) Record (KTHV)
Temperature  
Mean Temperature 40 °F -  
Max Temperature 48 °F 0 °F 59 °F (2006)
Min Temperature 33 °F - 10 °F (2003)
Degree Days  
Heating Degree Days 24    
Moisture  
Dew Point 42 °F    
Average Humidity 92    
Maximum Humidity 100    
Minimum Humidity 66    
Precipitation  
Precipitation 0.04 in - - ()
Sea Level Pressure  
Sea Level Pressure 29.80 in    
Wind  
Wind Speed 7 mph (SW)    
Max Wind Speed 16 mph    
Max Gust Speed 24 mph    
Visibility 8 miles    
Events Rain    
Averages and records for this station are not official NWS values.
T = Trace of Precipitation, MM = Missing Value Source: NWS Daily Summary

Daily Weather History Graph

Daily Weather History Graph

Search for Another Location

Airport:

Trip Planner

Search our weather history database for the weather conditions in past years. The results will help you decide how hot, cold, wet, or windy it might be!

Date:

Astronomy

Jan. 14, 2014 Rise Set
Actual Time 7:27 AM EST 5:07 PM EST
Civil Twilight 6:57 AM EST 5:36 PM EST
Nautical Twilight 6:24 AM EST 6:10 PM EST
Astronomical Twilight 5:52 AM EST 6:42 PM EST
Moon 4:10 PM EST (1/14) 6:00 AM EST (1/14)
Length of Visible Light 10h 39m
Length of Day
9h 39m
Waxing Gibbous, 98% of the Moon is Illuminated
Jan 14
Waxing Gibbous
Jan 15
Full
Jan 24
Last Quarter
Jan 30
New
Feb 6
First Quarter

Hourly Weather History & Observations

Time (EST) Temp. Windchill Dew Point Humidity Pressure Visibility Wind Dir Wind Speed Gust Speed Precip Events Conditions
12:05 AM 48.2 °F - 37.4 °F 66% 29.83 in 10.0 mi SSW 8.1 mph - N/A   Overcast
12:25 AM 48.2 °F - 39.2 °F 71% 29.84 in 10.0 mi SSW 9.2 mph - N/A Rain Light Rain
12:45 AM 48.2 °F - 41.0 °F 76% 29.83 in 10.0 mi SSW 9.2 mph - N/A Rain Light Rain
1:05 AM 46.4 °F 43.5 °F 41.0 °F 81% 29.82 in 10.0 mi South 5.8 mph - N/A Rain Light Rain
1:25 AM 46.4 °F 41.5 °F 42.8 °F 87% 29.83 in 10.0 mi South 10.4 mph - N/A   Drizzle
1:45 AM 46.4 °F 41.1 °F 42.8 °F 87% 29.83 in 10.0 mi SSW 11.5 mph 18.4 mph N/A Rain Light Rain
2:05 AM 46.4 °F 41.1 °F 42.8 °F 87% 29.82 in 10.0 mi SSW 11.5 mph - N/A Rain Rain
2:25 AM 46.4 °F 39.8 °F 42.8 °F 87% 29.82 in 10.0 mi SSW 16.1 mph 23.0 mph N/A Rain Light Rain
2:45 AM 46.4 °F 40.7 °F 42.8 °F 87% 29.81 in 10.0 mi South 12.7 mph 23.0 mph N/A Rain Light Rain
3:05 AM 46.4 °F 39.8 °F 42.8 °F 87% 29.82 in 10.0 mi SSW 16.1 mph 24.2 mph 0.01 in   Overcast
3:25 AM 46.4 °F 40.7 °F 42.8 °F 87% 29.80 in 10.0 mi SSW 12.7 mph 19.6 mph 0.01 in Rain Light Rain
3:45 AM 46.4 °F 41.5 °F 42.8 °F 87% 29.79 in 10.0 mi South 10.4 mph - 0.01 in   Overcast
4:05 AM 46.4 °F 41.5 °F 42.8 °F 87% 29.79 in 10.0 mi South 10.4 mph 16.1 mph N/A Rain Light Rain
4:25 AM 46.4 °F 41.1 °F 42.8 °F 87% 29.78 in 10.0 mi South 11.5 mph 16.1 mph N/A Rain Rain
4:45 AM 46.4 °F 42.4 °F 42.8 °F 87% 29.77 in 10.0 mi SSW 8.1 mph 16.1 mph N/A   Overcast
5:05 AM 46.4 °F 42.9 °F 42.8 °F 87% 29.76 in 10.0 mi SW 6.9 mph - N/A   Overcast
5:25 AM 46.4 °F 42.9 °F 44.6 °F 93% 29.77 in 10.0 mi SSW 6.9 mph - N/A   Drizzle
5:45 AM 46.4 °F 43.5 °F 42.8 °F 87% 29.77 in 10.0 mi South 5.8 mph - N/A   Overcast
6:05 AM 46.4 °F 43.5 °F 42.8 °F 87% 29.77 in 10.0 mi South 5.8 mph - N/A   Overcast
6:25 AM 46.4 °F 42.4 °F 44.6 °F 93% 29.78 in 10.0 mi South 8.1 mph - N/A   Overcast
6:45 AM 46.4 °F 43.5 °F 44.6 °F 93% 29.78 in 10.0 mi South 5.8 mph - N/A Rain Rain
7:05 AM 44.6 °F 40.7 °F 42.8 °F 93% 29.77 in 10.0 mi South 6.9 mph - N/A   Overcast
7:25 AM 44.6 °F 40.7 °F 44.6 °F 100% 29.78 in 10.0 mi South 6.9 mph - N/A Rain Rain
7:45 AM 44.6 °F 40.7 °F 42.8 °F 93% 29.77 in 7.0 mi SSW 6.9 mph - N/A Rain Rain
8:05 AM 44.6 °F 41.4 °F 42.8 °F 93% 29.77 in 10.0 mi SSW 5.8 mph - N/A   Overcast
8:25 AM 44.6 °F - 44.6 °F 100% 29.76 in 10.0 mi Calm Calm - N/A   Overcast
8:45 AM 46.4 °F 43.5 °F 44.6 °F 93% 29.76 in 10.0 mi SSW 5.8 mph - N/A   Light Drizzle
9:05 AM 46.4 °F 44.3 °F 44.6 °F 93% 29.76 in 10.0 mi SW 4.6 mph - N/A Rain Rain
9:25 AM 46.4 °F 43.5 °F 44.6 °F 93% 29.78 in 7.0 mi SW 5.8 mph - N/A   Drizzle
9:45 AM 46.4 °F 44.3 °F 44.6 °F 93% 29.77 in 5.0 mi WSW 4.6 mph - N/A   Drizzle
10:05 AM 46.4 °F 43.5 °F 44.6 °F 93% 29.78 in 4.0 mi WSW 5.8 mph - N/A Rain Rain
10:25 AM 46.4 °F 44.3 °F 44.6 °F 93% 29.76 in 5.0 mi SW 4.6 mph - N/A Rain Rain
10:45 AM 46.4 °F 43.5 °F 44.6 °F 93% 29.76 in 7.0 mi SW 5.8 mph - N/A   Light Drizzle
11:05 AM 46.4 °F 45.2 °F 44.6 °F 93% 29.75 in 10.0 mi WSW 3.5 mph - N/A   Mostly Cloudy
11:25 AM 46.4 °F - 44.6 °F 93% 29.75 in 10.0 mi Calm Calm - N/A   Overcast
11:45 AM 46.4 °F 45.2 °F 44.6 °F 93% 2.97 in 7.0 mi WSW 3.5 mph - N/A   Light Drizzle
12:05 PM 46.4 °F 42.4 °F 44.6 °F 93% 29.75 in 4.0 mi West 8.1 mph - 0.01 in Rain Rain
12:25 PM 44.6 °F 42.2 °F 44.6 °F 100% 29.75 in 4.0 mi West 4.6 mph - 0.02 in Rain Rain
12:45 PM 44.6 °F 42.2 °F 44.6 °F 100% - 7.0 mi West 4.6 mph - 0.02 in Rain Light Rain
1:05 PM 44.6 °F 41.4 °F 44.6 °F 100% 29.74 in 7.0 mi West 5.8 mph - N/A Rain Light Rain
1:25 PM 44.6 °F 41.4 °F 44.6 °F 100% 29.74 in 5.0 mi WNW 5.8 mph - N/A Rain Rain
1:45 PM 44.6 °F 42.2 °F 44.6 °F 100% 29.75 in 5.0 mi West 4.6 mph - N/A Rain Light Rain
2:05 PM 44.6 °F - 44.6 °F 100% 29.73 in 7.0 mi Calm Calm - N/A Rain Light Rain
2:25 PM 46.4 °F - 44.6 °F 93% 29.72 in 10.0 mi Calm Calm - N/A   Scattered Clouds
2:45 PM 46.4 °F - 44.6 °F 93% 29.71 in 10.0 mi Calm Calm - 0.01 in   Clear
3:05 PM 46.4 °F - 44.6 °F 93% 29.70 in 10.0 mi Calm Calm - N/A   Scattered Clouds
3:25 PM 46.4 °F - 44.6 °F 93% 29.71 in 10.0 mi Calm Calm - N/A   Scattered Clouds
3:45 PM 46.4 °F 43.5 °F 44.6 °F 93% 29.75 in 7.0 mi WSW 5.8 mph - N/A   Mostly Cloudy
4:05 PM 46.4 °F 43.5 °F 44.6 °F 93% 29.76 in 5.0 mi West 5.8 mph - N/A   Light Drizzle
4:25 PM 44.6 °F 42.2 °F 44.6 °F 100% 29.74 in 10.0 mi WNW 4.6 mph - N/A   Scattered Clouds
4:45 PM 44.6 °F 40.7 °F 44.6 °F 100% 29.77 in 7.0 mi West 6.9 mph - N/A   Mostly Cloudy
5:05 PM 44.6 °F 40.7 °F 44.6 °F 100% 29.78 in 4.0 mi West 6.9 mph - N/A   Overcast
5:25 PM 44.6 °F 40.7 °F 44.6 °F 100% 29.80 in 7.0 mi WNW 6.9 mph - N/A   Drizzle
5:45 PM 44.6 °F 42.2 °F 44.6 °F 100% 29.80 in 10.0 mi West 4.6 mph - N/A   Overcast
6:05 PM 44.6 °F 40.2 °F 42.8 °F 93% 29.82 in 10.0 mi West 8.1 mph - N/A   Scattered Clouds
6:25 PM 44.6 °F 39.7 °F 42.8 °F 93% 29.83 in 10.0 mi West 9.2 mph - N/A   Clear
6:45 PM 44.6 °F 40.7 °F 42.8 °F 93% 29.84 in 10.0 mi West 6.9 mph - N/A   Clear
7:05 PM 42.8 °F 40.1 °F 41.0 °F 93% 29.84 in 10.0 mi WSW 4.6 mph - N/A   Clear
7:25 PM 42.8 °F 39.3 °F 41.0 °F 93% 29.85 in 10.0 mi WSW 5.8 mph - N/A   Clear
7:45 PM 42.8 °F 40.1 °F 41.0 °F 93% 29.85 in 10.0 mi WSW 4.6 mph - N/A   Clear
8:05 PM 42.8 °F 40.1 °F 41.0 °F 93% 29.85 in 10.0 mi WSW 4.6 mph - N/A   Clear
8:25 PM 42.8 °F 39.3 °F 41.0 °F 93% 29.86 in 10.0 mi WSW 5.8 mph - N/A   Clear
8:45 PM 42.8 °F 39.3 °F 39.2 °F 87% - 10.0 mi WSW 5.8 mph - N/A   Scattered Clouds
9:05 PM 42.8 °F 40.1 °F 39.2 °F 87% 29.88 in 10.0 mi WSW 4.6 mph - N/A   Clear
9:25 PM 39.2 °F 35.0 °F 37.4 °F 93% 29.88 in 1.5 mi West 5.8 mph - N/A   Mostly Cloudy
9:45 PM 37.4 °F - 35.6 °F 93% 29.89 in 5.0 mi Calm Calm - N/A   Clear
10:05 PM 37.4 °F 34.9 °F 35.6 °F 93% 29.90 in 5.0 mi SSW 3.5 mph - N/A   Clear
10:25 PM 39.2 °F 35.9 °F 37.4 °F 93% 29.91 in 4.0 mi WSW 4.6 mph - N/A   Clear
10:45 PM 39.2 °F - 37.4 °F 93% 29.90 in 10.0 mi Calm Calm - N/A   Clear
11:05 PM 35.6 °F - 33.8 °F 93% 29.90 in 5.0 mi Calm Calm - N/A   Scattered Clouds
11:25 PM 33.8 °F - 33.8 °F 100% 29.89 in 4.0 mi Calm Calm - N/A   Scattered Clouds
11:45 PM 35.6 °F - 33.8 °F 93% 29.90 in 4.0 mi Calm Calm - N/A   Scattered Clouds